This is the latest recevied weather packets stored in our database for station/object N6WDO. If no packets are shown the sender has not sent any weather packets the latest 10 day(s).
| Time | Temp. | Humidity | Pressure | Rain* | Wind** | Luminosity | Snow |
|---|---|---|---|---|---|---|---|
| 1777933624 | 10.56° C | 91% | 1016.2 hPa | 0 mm | - | 137 W/m² | - |
| 1777933320 | 10.56° C | 91% | 1016.3 hPa | 0 mm | - | 125 W/m² | - |
| 1777933018 | 10.56° C | 91% | 1016.3 hPa | 0 mm | - | 131 W/m² | - |
| 1777932715 | 10.56° C | 91% | 1016.3 hPa | 0 mm | - | 171 W/m² | - |
| 1777932411 | 10.56° C | 92% | 1016.2 hPa | 0 mm | - | 156 W/m² | - |
| 1777932109 | 10.56° C | 92% | 1016.3 hPa | 0 mm | - | 145 W/m² | - |
| 1777931805 | 10° C | 93% | 1016.5 hPa | 1.27 mm | - | 138 W/m² | - |
| 1777931502 | 10° C | 93% | 1016.7 hPa | 1.27 mm | - | 96 W/m² | - |
| 1777931198 | 10° C | 93% | 1016.9 hPa | 0 mm | - | 80 W/m² | - |
| 1777930894 | 10° C | 93% | 1016.8 hPa | 0 mm | - | 67 W/m² | - |
| 1777930591 | 10° C | 93% | 1016.8 hPa | 0 mm | - | 57 W/m² | - |
| 1777930288 | 10° C | 93% | 1017 hPa | 0 mm | - | 53 W/m² | - |
| 1777929984 | 10° C | 93% | 1016.8 hPa | 0 mm | - | 51 W/m² | - |
| 1777929681 | 10° C | 93% | 1016.9 hPa | 0 mm | - | 55 W/m² | - |
| 1777929379 | 10° C | 93% | 1017 hPa | 0 mm | - | 75 W/m² | - |
| 1777929075 | 10.56° C | 92% | 1016.8 hPa | 0 mm | - | 86 W/m² | - |
| 1777928773 | 10.56° C | 92% | 1016.8 hPa | 0 mm | - | 108 W/m² | - |
| 1777928469 | 10.56° C | 91% | 1017.1 hPa | 0 mm | - | 126 W/m² | - |
| 1777928167 | 10.56° C | 92% | 1016.9 hPa | 0 mm | - | 101 W/m² | - |
| 1777927864 | 10.56° C | 91% | 1016.9 hPa | 0 mm | - | 86 W/m² | - |
| 1777927563 | 10.56° C | 89% | 1016.9 hPa | 0 mm | - | 71 W/m² | - |
| 1777927261 | 10.56° C | 89% | 1016.8 hPa | 0 mm | - | 67 W/m² | - |
| 1777926959 | 10.56° C | 89% | 1017.1 hPa | 0 mm | - | 71 W/m² | - |
| 1777926656 | 10.56° C | 89% | 1017 hPa | 0 mm | - | 85 W/m² | - |
| 1777926351 | 10.56° C | 89% | 1017 hPa | 0 mm | - | 95 W/m² | - |
* Rain latest hour (hover to see other rain measurements)
** Current wind speed in m/s (hover to see current wind gust speed)